sat.trackr.live / text

‹ back to catalog

STARLINK-31991

NORAD 59963 · 2024-107U

PAYLOAD ACTIVE UNKNOWN

§ Identity

Operator
Country
US
Launch date
2024-06-05
Launch site
AFETR
Launch vehicle
Mass (kg)
RCS (m²)

Purposes: comms

External: N2YO · Heavens-Above · Gunter

§ Orbital elements

Epoch: 2026-05-25T02:06:42.151968Z

Period
94.10 min
Inclination
53.1608°
Eccentricity
0.0001268
Mean motion
15.30207037 rev/d
Perigee alt
474.3 km
Apogee alt
476.1 km
Semi-major
6,853.3 km
B*
9.7945e-5
RAAN
70.6482°
Arg perigee
114.6588°
Mean anomaly
245.4545°
Rev number
11,149

§ Raw data

STARLINK-319911 59963U 24107U   26145.08798787  .00002543  00000+0  97945-4 0  99992 59963  53.1608  70.6482 0001268 114.6588 245.4545 15.30207037111497

JSON: /api/v1/satellites/59963 · /tle

For live sub-satellite position, see the globe view (requires WebGL).

§ Visibility from observer

Set your observer location to see the next 7 days of passes ≥ 10°. The values pass through the URL so the page stays shareable.

No JS? Fill the form by hand. The geolocation button needs JavaScript.